Content
SEND FEEDBACK

Daily
Averages
Monthly
Summary
Bulgaria

KARA BAIR, BULGARIA


Home > Europe > Bulgaria
Elevation: 92 feet     Latitude: 42 28N     Longitude: 027 28E

WEATHER
 
SELECT A DAY
Number of Records: 299,668;   Date Range: 7/1/96 - 8/10/14
 
SHARE

PRINT THIS DATA

[ ← Previous Day ]
WEATHER ALMANAC - JANUARY 31, 2013
[ Next Day → ]
[ °C ]   °F
Weather ElementAverageHighLow
Temperature32.5 °F41 °F (6:30 pm)24.8 °F (1:30 am)
Dewpoint30.8 °F39.2 °F (6:30 pm)23 °F (1:30 am)
Humidity93 %100 % (12:30 am)69 % (11:00 pm)
Barometer29.90 in30.01 in (12:30 am)29.80 in (2:00 pm)
Wind Speed8.5 mph15.7 mph (11:00 pm)
Weather ElementAverage
Visibility3.6 mi
Wind DirectionSW (229.1 °)

Weather ElementTotal
Precipitation---
Heating Degree Days32.1 (Base 65)
Averaged from 55 records on January 31, 2013
WEATHER CONDITIONS BREAKOUT
WIND DIRECTION BREAKOUT
WEATHER BY HOUR - JANUARY 31, 2013
[ °C ]   °F
Local TimeTemperatureDewpointHumidityBarometerVisibilityWind DirectionWind SpeedGust SpeedPrecipitationEventsConditions
12:30 AM26.6 °F26.6 °F100 %30.01 in2.2 miSouth (170°)4.5 mphMist
1:00 AM26.6 °F24.8 °F93 %29.98 inSW (220°)6.7 mphMist
1:30 AM24.8 °F23.0 °F93 %29.98 in1.8 miWest (280°)6.7 mphMist
2:00 AM29.0 °F28.0 °F94 %30.01 in2.0 miWSW (250°)11.2 mphMist
2:00 AM24.8 °F23.0 °F93 %29.98 in1.6 miWest (260°)4.5 mphMist
2:30 AM26.6 °F24.8 °F93 %29.98 inSW (220°)6.7 mphMist
3:00 AM26.6 °F26.6 °F100 %29.98 in3.1 miSouth (190°)6.7 mphMist
3:30 AM28.4 °F26.6 °F93 %29.95 inSouth (190°)6.7 mphMist
4:00 AM26.6 °F26.6 °F100 %29.95 inVariable4.5 mphMist
4:30 AM24.8 °F24.8 °F100 %29.95 in3.1 miWSW (250°)6.7 mphMist
5:00 AM28.0 °F26.0 °F89 %29.97 in2.0 miSW (230°)8.9 mphMist
5:00 AM24.8 °F24.8 °F100 %29.95 in3.1 miVariable4.5 mphMist
5:30 AM26.6 °F24.8 °F93 %29.92 inVariable4.5 mphMist
6:00 AM26.6 °F26.6 °F100 %29.92 inSouth (190°)4.5 mphMist
6:30 AM24.8 °F24.8 °F100 %29.92 inVariable2.2 mphMist
7:00 AM24.8 °F24.8 °F100 %29.89 in1.8 miWNW (290°)4.5 mphMist
7:30 AM26.6 °F26.6 °F100 %29.89 in1.3 miSSW (210°)2.2 mphMostly Cloudy
8:00 AM29.0 °F27.0 °F91 %29.91 in6.0 miSW (230°)2.2 mphOvercast
8:00 AM28.4 °F26.6 °F93 %29.89 in1.1 miWest (260°)4.5 mphOvercast
8:30 AM28.4 °F28.4 °F100 %29.89 in1.7 miWest (270°)6.7 mphOvercast
9:00 AM30.2 °F30.2 °F100 %29.86 in1.7 miWSW (240°)4.5 mphOvercast
9:30 AM30.2 °F30.2 °F100 %29.86 in1.5 miSW (220°)6.7 mphOvercast
10:00 AM32.0 °F30.2 °F93 %29.86 in1.5 miSW (220°)6.7 mphMostly Cloudy
10:30 AM32.0 °F32.0 °F100 %29.86 in1.7 miSW (220°)8.9 mphRainLight Rain
11:00 AM33.0 °F28.0 °F77 %29.89 in0.0 miSW (230°)2.2 mphRainLight Rain
11:00 AM33.8 °F32.0 °F93 %29.86 in1.4 miWSW (240°)11.2 mphRainLight Rain
11:30 AM33.8 °F33.8 °F100 %29.86 in1.2 miWSW (250°)8.9 mphRainLight Rain
12:00 PM35.6 °F32.0 °F87 %29.83 in4.3 miWest (260°)11.2 mphRainLight Rain
12:30 PM35.6 °F32.0 °F87 %29.83 in3.7 miWest (270°)13.4 mphRainLight Rain
1:00 PM35.6 °F32.0 °F87 %29.83 in3.1 miWest (280°)13.4 mphRainLight Rain
1:30 PM35.6 °F33.8 °F93 %29.83 inWest (280°)13.4 mphRainLight Rain
2:00 PM36.0 °F33.0 °F85 %29.86 in1.0 miWSW (250°)11.2 mphMist
2:00 PM35.6 °F33.8 °F93 %29.80 in3.1 miWest (270°)13.4 mphRainLight Rain
2:30 PM35.6 °F33.8 °F93 %29.80 inWest (260°)11.2 mphRainRain
3:00 PM35.6 °F35.6 °F100 %29.80 in3.1 miWSW (250°)13.4 mphRainRain
3:30 PM35.6 °F33.8 °F93 %29.80 in3.1 miWest (260°)13.4 mphRainRain
4:00 PM35.6 °F33.8 °F93 %29.83 inWest (260°)13.4 mphRainLight Rain
4:30 PM35.6 °F33.8 °F93 %29.83 inWest (260°)13.4 mphRainLight Rain
5:00 PM35.0 °F34.0 °F93 %29.84 in1.0 miWSW (250°)13.4 mphRainLight Rain
5:00 PM35.6 °F33.8 °F93 %29.83 in1.7 miWest (260°)13.4 mphRainLight Rain
5:30 PM33.8 °F33.8 °F100 %29.83 inWest (260°)8.9 mphRainLight Rain
6:00 PM37.4 °F35.6 °F93 %29.83 inWest (260°)8.9 mphRainLight Rain
6:30 PM41.0 °F39.2 °F93 %29.86 in6.2 miNW (320°)8.9 mphRainLight Rain
7:00 PM39.2 °F37.4 °F93 %29.89 in6.2 miNNW (330°)11.2 mphRainLight Rain
7:30 PM39.2 °F37.4 °F93 %29.89 in6.2 miNNW (330°)11.2 mphMostly Cloudy
8:00 PM41.0 °F35.0 °F71 %29.92 in12.0 miNW (320°)11.2 mphPartly Cloudy
8:00 PM39.2 °F35.6 °F87 %29.92 in6.2 miNW (320°)6.7 mphMostly Cloudy
8:30 PM39.2 °F35.6 °F87 %29.92 in6.2 miSSW (200°)6.7 mphMostly Cloudy
9:00 PM39.2 °F35.6 °F87 %29.92 in6.2 miWSW (240°)11.2 mphScattered Clouds
9:30 PM37.4 °F35.6 °F93 %29.92 in6.2 miWest (270°)6.7 mphMostly Cloudy
10:00 PM37.4 °F33.8 °F87 %29.92 in6.2 miVariable4.5 mphMostly Cloudy
10:30 PM35.6 °F33.8 °F93 %29.92 in6.2 miWSW (250°)11.2 mphPartly Cloudy
11:00 PM39.0 °F32.0 °F69 %29.96 in12.0 miWSW (250°)15.7 mphClear
11:00 PM35.6 °F33.8 °F93 %29.95 inWSW (250°)8.9 mphClear
11:30 PM35.6 °F35.6 °F100 %29.95 inWest (260°)8.9 mphClear
Hourly data recorded from LBBG, located miles away from Kara Bair, Bulgaria







STORIES FROM OUR PARTNERS